IRIDIUM 69

Satellite information

Favourite Embed

Satellite Type and Status

PAYLOADIN ORBIT

Key statistics

Satellite IRIDIUM 69 at a glance.

Uptime

10035

Days in orbit

Revolutions

≈ 14.4

Per day

Orbit

LEO

Low Earth Orbit

Inclination

86.4

Latest

Satellite identification and parameters

Extended collection of information and parameters for IRIDIUM 69.

Object identification

Identified? True

Debris? False

Object name: IRIDIUM 69

International designator: 1998-026A

Object number (NORAD): 25319

Object ID (CCSDS): 25319

Country: UNITED STATES OF AMERICA (US)

Current information (Y/N): Y

RCS size: LARGE

Orbital parameters

Period: 99.922 minutes

Inclination: 86.4001 deg

SMA: 7132.924 km

Apoapsis: 756.206 km

Periapsis: 753.372 km

RAAN: 41.89 deg

Eccentricy: 0.0001986

Argument of periapsis: 22.1895 deg

Mean anomaly: 337.939 deg

Mean motion: 14.41124058 rev/day

Mean motion (dot): 0.00001129 rev/day2

B* drag term: 0.00034452 1/REarth

Two-line elements (TLE)

Creation date: Oct. 22, 2025, 12:06 a.m.

Reference frame: TEME

Reference center: EARTH

Epoch: Oct. 21, 2025, 6:42 p.m. UTC

TLE line 0: 0 IRIDIUM 69

TLE line 1: 1 25319U 98026A 25294.77971470 .00001129 00000-0 34452-3 0 9993

TLE line 2: 2 25319 86.4001 41.8900 0001986 22.1895 337.9390 14.41124058441298

Live tracking on map

Real-time ground track for satellite IRIDIUM 69.

In-orbit conjunctions

A list of the most updated potential collisions computed for object IRIDIUM 69.

Target Orbit TCA Probability of collision Miss distance Type
COSMOS 252 DEB LEO 2025-09-26 13:54:55 0.0006905969 48.0 (m) DEBRIS
FENGYUN 1C DEB SSO 2025-07-31 18:47:43 0.000319504 891.0 (m) DEBRIS
NOAA 16 DEB SSO 2025-05-29 22:34:55 0.0004640897 175.0 (m) DEBRIS
THOR ABLESTAR DEB LEO 2025-05-23 07:18:52 0.0003410503 111.0 (m) DEBRIS
CZ-6A DEB LEO 2025-01-27 22:26:37 0.0002383766 689.0 (m) DEBRIS

Associated space launch

Iridium provides global mobile telecommunications services using a constellation of 66 low earth orbit satellites in a 86.4° inclined orbit. Although 77 satellites were originally envisioned for the system and spawned the name based on the 77th element in the periodic table, the system has been scaled back. Motorola's Satellite Communications Group designed and manufactured the Iridium satellites with Lockheed Martin providing the LM-700A spacecraft buses.

IRIDIUM 69 was lifted into orbit during the mission ‘Long March 2C/SD | Iridium 69 & 71’, on board a Long March 2C/SD space rocket.

The launch took place on May 2, 1998, 9:16 a.m. from Launch Complex 7.

For more information about the launch, click the button.

Launch to space Long March 2C/SD | Iridium 69 & 71
Long March 2C/SD | Iridium 69 & 71

Agency: N/A

Status: Launch Successful

Launch date: May 2, 1998, 9:16 a.m. UTC

Rocket: Long March 2C/SD

Launch pad: Launch Complex 7

Location: Taiyuan Satellite Launch Center, People's Republic of China

...

Latest news about this satellite

There are no fresh news available about this satellite. Check back as we update our databases every day.


Newsletter sign-up

Weekly statistics, charts and insights to help you stay on top of the space industry.